K4AVM-13 Weather Reports


Display with metric or nautical units.
time (UTC)temp
F
wind
direction
speed
MPH
gust
MPH
rain 1hr
in
rain 24hr
in
rain mn
in
humidity
%
barometer
mb
20260506032501 70 132 0.0 4.0 0.00 0.00 0.00 63 1014.7
20260506031956 70 204 0.0 1.0 0.00 0.00 0.00 62 1014.6
20260506031455 70 132 0.0 3.0 0.00 0.00 0.00 61 1014.6
20260506030952 70 135 0.0 2.0 0.00 0.00 0.00 60 1014.4
20260506030450 71 145 1.0 1.0 0.00 0.00 0.00 59 1014.4
20260506025946 71 180 2.0 3.0 0.00 0.00 0.00 58 1014.4
20260506025443 72 159 0.0 2.0 0.00 0.00 0.00 58 1014.3
20260506024940 72 207 3.0 4.0 0.00 0.00 0.00 57 1014.6
20260506024437 72 227 3.0 7.0 0.00 0.00 0.00 57 1014.4
20260506023932 72 154 3.0 4.0 0.00 0.00 0.00 56 1014.5
20260506023430 72 169 1.0 1.0 0.00 0.00 0.00 56 1014.4
20260506022926 72 169 1.0 2.0 0.00 0.00 0.00 55 1014.6
20260506022424 72 144 0.0 3.0 0.00 0.00 0.00 54 1014.5
20260506021922 72 155 1.0 4.0 0.00 0.00 0.00 54 1014.4
20260506021419 73 172 1.0 2.0 0.00 0.00 0.00 54 1014.4
20260506020916 73 112 4.0 4.0 0.00 0.00 0.00 53 1014.3
20260506020414 73 129 0.0 2.0 0.00 0.00 0.00 53 1014.3
20260506015911 73 154 0.0 1.0 0.00 0.00 0.00 53 1014.3
20260506015408 73 169 0.0 3.0 0.00 0.00 0.00 53 1014.4
20260506014905 73 141 1.0 2.0 0.00 0.00 0.00 52 1014.3
20260506014402 73 126 0.0 4.0 0.00 0.00 0.00 52 1014.2
20260506013858 73 194 0.0 7.0 0.00 0.00 0.00 52 1014.2
20260506013356 73 195 2.0 4.0 0.00 0.00 0.00 52 1014.3
20260506012852 74 155 1.0 6.0 0.00 0.00 0.00 52 1014.1
20260506012349 74 149 2.0 3.0 0.00 0.00 0.00 51 1014.0
20260506011846 74 123 0.0 7.0 0.00 0.00 0.00 51 1014.2
20260506011343 74 151 0.0 3.0 0.00 0.00 0.00 51 1013.9
20260506010840 74 168 2.0 3.0 0.00 0.00 0.00 51 1013.9
20260506010338 74 151 0.0 2.0 0.00 0.00 0.00 50 1013.9
20260506005835 74 145 1.0 4.0 0.00 0.00 0.00 49 1013.9
20260506005332 75 141 1.0 4.0 0.00 0.00 0.00 49 1013.7
20260506004828 75 145 1.0 3.0 0.00 0.00 0.00 48 1013.8
20260506004326 75 146 0.0 3.0 0.00 0.00 0.00 48 1013.6
20260506003821 75 149 0.0 6.0 0.00 0.00 0.00 47 1013.5
20260506003318 75 196 3.0 4.0 0.00 0.00 0.00 47 1013.6
20260506002814 76 123 1.0 3.0 0.00 0.00 0.00 47 1013.5
20260506002311 76 155 0.0 9.0 0.00 0.00 0.00 46 1013.6
20260506001806 76 164 2.0 6.0 0.00 0.00 0.00 46 1013.3
20260506001304 76 119 2.0 3.0 0.00 0.00 0.00 46 1013.3
20260506000801 76 122 1.0 4.0 0.00 0.00 0.00 46 1013.3
20260506000259 76 157 1.0 7.0 0.00 0.00 0.00 45 1013.4
20260505235755 76 145 1.0 3.0 0.00 0.00 0.00 45 1013.4
20260505235253 77 155 1.0 6.0 0.00 0.00 0.00 44 1013.3
20260505234749 77 168 5.0 7.0 0.00 0.00 0.00 44 1013.4
20260505234247 77 126 3.0 4.0 0.00 0.00 0.00 44 1013.3
20260505233743 77 174 2.0 6.0 0.00 0.00 0.00 44 1013.1
20260505233242 77 142 1.0 4.0 0.00 0.00 0.00 44 1013.3
20260505232738 77 166 2.0 3.0 0.00 0.00 0.00 44 1013.4
20260505232236 77 141 3.0 9.0 0.00 0.00 0.00 44 1013.2
20260505231732 77 161 0.0 4.0 0.00 0.00 0.00 44 1013.2
20260505231232 78 158 0.0 1.0 0.00 0.00 0.00 44 1013.3
20260505230729 78 159 0.0 6.0 0.00 0.00 0.00 43 1013.1
20260505230226 78 171 0.0 6.0 0.00 0.00 0.00 42 1013.3
20260505225722 79 186 1.0 4.0 0.00 0.00 0.00 42 1013.3
20260505225219 79 213 2.0 11.0 0.00 0.00 0.00 41 1013.1
20260505224715 79 160 3.0 7.0 0.00 0.00 0.00 41 1013.1
20260505224213 79 135 1.0 6.0 0.00 0.00 0.00 41 1013.1
20260505223710 79 137 0.0 6.0 0.00 0.00 0.00 40 1013.2
20260505223206 80 171 1.0 4.0 0.00 0.00 0.00 40 1013.3
20260505222702 80 102 1.0 3.0 0.00 0.00 0.00 40 1013.2
20260505222158 80 161 1.0 8.0 0.00 0.00 0.00 39 1013.0
20260505221655 80 162 1.0 6.0 0.00 0.00 0.00 38 1013.1
20260505221152 81 233 3.0 4.0 0.00 0.00 0.00 38 1013.1
20260505220649 81 164 1.0 6.0 0.00 0.00 0.00 38 1013.0
20260505220147 81 147 2.0 4.0 0.00 0.00 0.00 37 1012.9
20260505215644 81 155 0.0 3.0 0.00 0.00 0.00 38 1013.0
20260505215142 81 159 1.0 3.0 0.00 0.00 0.00 37 1012.8
20260505214640 81 120 2.0 6.0 0.00 0.00 0.00 36 1013.0
20260505214137 81 122 3.0 4.0 0.00 0.00 0.00 37 1012.7
20260505213634 82 188 2.0 6.0 0.00 0.00 0.00 35 1012.8
20260505213131 82 155 2.0 11.0 0.00 0.00 0.00 34 1012.8
20260505212627 83 182 2.0 6.0 0.00 0.00 0.00 33 1012.8
20260505212125 83 201 2.0 10.0 0.00 0.00 0.00 33 1012.9
20260505211621 83 358 3.0 3.0 0.00 0.00 0.00 33 1013.0
20260505211119 84 160 4.0 7.0 0.00 0.00 0.00 32 1012.8
20260505210615 83 105 3.0 4.0 0.00 0.00 0.00 32 1012.8
20260505210112 84 180 3.0 8.0 0.00 0.00 0.00 32 1013.0
20260505205610 83 165 2.0 6.0 0.00 0.00 0.00 31 1013.0
20260505205107 83 143 1.0 7.0 0.00 0.00 0.00 32 1012.9
20260505204604 83 192 2.0 3.0 0.00 0.00 0.00 32 1012.6
20260505204102 85 136 1.0 3.0 0.00 0.00 0.00 29 1012.8
20260505203558 84 239 2.0 4.0 0.00 0.00 0.00 29 1012.8
20260505203055 85 219 4.0 6.0 0.00 0.00 0.00 29 1013.0
20260505202551 85 126 1.0 6.0 0.00 0.00 0.00 29 1013.0
20260505202047 85 119 3.0 4.0 0.00 0.00 0.00 30 1012.9
20260505201544 85 212 1.0 3.0 0.00 0.00 0.00 30 1012.7
20260505201042 84 131 3.0 6.0 0.00 0.00 0.00 30 1012.9
20260505200539 86 114 3.0 7.0 0.00 0.00 0.00 31 1013.0
20260505200036 85 173 2.0 4.0 0.00 0.00 0.00 29 1013.1
20260505195532 85 239 1.0 6.0 0.00 0.00 0.00 30 1013.2
20260505195030 84 157 2.0 6.0 0.00 0.00 0.00 28 1013.2
20260505194527 85 134 3.0 14.0 0.00 0.00 0.00 28 1013.4
20260505194022 85 203 3.0 4.0 0.00 0.00 0.00 29 1013.4
20260505193520 84 166 2.0 7.0 0.00 0.00 0.00 29 1013.5
20260505193017 86 130 4.0 7.0 0.00 0.00 0.00 28 1013.3
20260505192516 85 194 3.0 4.0 0.00 0.00 0.00 28 1013.7
20260505192013 85 200 1.0 4.0 0.00 0.00 0.00 29 1013.6
20260505191511 85 242 2.0 3.0 0.00 0.00 0.00 31 1013.7
20260505191008 84 182 3.0 4.0 0.00 0.00 0.00 31 1013.8
20260505190503 84 184 4.0 4.0 0.00 0.00 0.00 30 1013.8
20260505185959 84 217 3.0 8.0 0.00 0.00 0.00 32 1013.9
20260505185456 85 148 2.0 6.0 0.00 0.00 0.00 31 1014.0
20260505184952 83 164 4.0 7.0 0.00 0.00 0.00 32 1014.3
20260505184449 84 189 5.0 9.0 0.00 0.00 0.00 30 1014.2
20260505183945 84 143 3.0 8.0 0.00 0.00 0.00 30 1014.2
20260505183443 84 190 4.0 6.0 0.00 0.00 0.00 30 1014.3
20260505182939 85 143 4.0 10.0 0.00 0.00 0.00 30 1014.2
20260505182437 84 133 4.0 9.0 0.00 0.00 0.00 30 1014.2
20260505181932 85 199 4.0 6.0 0.00 0.00 0.00 32 1014.2
20260505181430 84 202 2.0 4.0 0.00 0.00 0.00 33 1014.4
20260505180927 84 121 2.0 9.0 0.00 0.00 0.00 33 1014.4
20260505180423 84 152 1.0 6.0 0.00 0.00 0.00 34 1014.4
20260505175920 83 151 1.0 6.0 0.00 0.00 0.00 35 1014.7
20260505175416 84 223 3.0 6.0 0.00 0.00 0.00 34 1014.7
20260505174912 84 196 4.0 8.0 0.00 0.00 0.00 33 1014.7
20260505174410 83 199 2.0 6.0 0.00 0.00 0.00 35 1014.8
20260505173906 84 150 1.0 2.0 0.00 0.00 0.00 37 1014.9
20260505173403 83 194 4.0 6.0 0.00 0.00 0.00 36 1014.9
20260505172900 82 175 3.0 9.0 0.00 0.00 0.00 38 1015.0
20260505172358 84 159 1.0 2.0 0.00 0.00 0.00 38 1015.0
20260505171857 82 150 0.0 6.0 0.00 0.00 0.00 40 1015.2
20260505171354 82 174 0.0 7.0 0.00 0.00 0.00 42 1015.1
20260505170851 83 210 1.0 6.0 0.00 0.00 0.00 40 1015.2
20260505170348 82 107 2.0 3.0 0.00 0.00 0.00 42 1015.1
20260505165843 82 60 2.0 7.0 0.00 0.00 0.00 40 1015.2
20260505165339 82 122 1.0 3.0 0.00 0.00 0.00 42 1015.3
20260505164835 82 209 5.0 7.0 0.00 0.00 0.00 41 1015.3
20260505164331 81 146 1.0 4.0 0.00 0.00 0.00 42 1015.5
20260505163830 80 189 1.0 3.0 0.00 0.00 0.00 42 1015.3
20260505163328 81 168 2.0 6.0 0.00 0.00 0.00 44 1015.3
20260505162826 81 187 1.0 4.0 0.00 0.00 0.00 42 1015.5
20260505162322 81 201 1.0 3.0 0.00 0.00 0.00 42 1015.5
20260505161819 80 133 3.0 3.0 0.00 0.00 0.00 44 1015.8
20260505161317 80 110 3.0 3.0 0.00 0.00 0.00 45 1015.9
20260505160814 79 192 4.0 4.0 0.00 0.00 0.00 46 1015.8
20260505160312 79 235 1.0 6.0 0.00 0.00 0.00 46 1016.1
20260505153250 78 124 0.0 4.0 0.00 0.00 0.00 48 1016.2
20260505152747 77 154 1.0 3.0 0.00 0.00 0.00 48 1016.3
20260505152244 78 148 0.0 4.0 0.00 0.00 0.00 49 1016.1
20260505151738 77 177 1.0 2.0 0.00 0.00 0.00 48 1016.2
20260505151236 77 197 1.0 2.0 0.00 0.00 0.00 49 1016.2
20260505150732 77 131 3.0 4.0 0.00 0.00 0.00 48 1016.3
20260505150230 77 142 2.0 3.0 0.00 0.00 0.00 50 1016.1
20260505140154 72 143 0.0 1.0 0.00 0.00 0.00 54 1016.1
20260505130118 68 222 0.0 1.0 0.00 0.00 0.00 61 1016.5
20260505124607 66 180 1.0 1.0 0.00 0.00 0.00 65 1016.5
20260505124104 65 177 1.0 2.0 0.00 0.00 0.00 67 1016.6
20260505123600 65 153 1.0 1.0 0.00 0.00 0.00 68 1016.5
20260505123057 65 179 1.0 1.0 0.00 0.00 0.00 68 1016.6
20260505122553 64 144 0.0 2.0 0.00 0.00 0.00 68 1016.6
20260505122051 63 166 1.0 3.0 0.00 0.00 0.00 70 1016.3
20260505121547 63 162 0.0 2.0 0.00 0.00 0.00 70 1016.7
20260505121044 63 154 0.0 2.0 0.00 0.00 0.00 71 1016.5
20260505120540 63 163 2.0 6.0 0.00 0.00 0.00 71 1016.5
20260505120036 63 189 2.0 7.0 0.00 0.00 0.00 72 1016.2
20260505115531 62 129 2.0 3.0 0.00 0.00 0.00 72 1016.2
20260505115029 61 139 1.0 4.0 0.00 0.00 0.00 75 1016.1
20260505114525 60 159 0.0 0.0 0.00 0.00 0.00 76 1016.2
20260505114022 60 124 0.0 1.0 0.00 0.00 0.00 75 1016.1
20260505113518 60 151 0.0 1.0 0.00 0.00 0.00 75 1016.0
20260505113014 60 166 2.0 4.0 0.00 0.00 0.00 76 1015.9
20260505112511 60 160 2.0 3.0 0.00 0.00 0.00 76 1015.9
20260505112009 59 144 1.0 3.0 0.00 0.00 0.00 77 1015.8
20260505111502 59 126 0.0 3.0 0.00 0.00 0.00 78 1015.7
20260505110959 58 156 0.0 2.0 0.00 0.00 0.00 80 1015.8
20260505110455 58 151 0.0 1.0 0.00 0.00 0.00 80 1015.7
20260505101927 58 156 0.0 1.0 0.00 0.00 0.00 79 1015.4
20260505101421 58 151 1.0 2.0 0.00 0.00 0.00 80 1015.5
20260505100917 58 151 0.0 1.0 0.00 0.00 0.00 79 1015.5
20260505100414 58 151 0.0 1.0 0.00 0.00 0.00 79 1015.1
20260505095909 59 141 0.0 0.0 0.00 0.00 0.00 78 1015.3
20260505095407 59 144 0.0 2.0 0.00 0.00 0.00 77 1015.4
20260505094903 58 116 0.0 0.0 0.00 0.00 0.00 78 1015.3
20260505094400 59 166 0.0 1.0 0.00 0.00 0.00 77 1015.2
20260505093855 59 135 0.0 1.0 0.00 0.00 0.00 76 1015.1
20260505093353 59 108 1.0 2.0 0.00 0.00 0.00 76 1015.2
20260505092850 60 159 1.0 1.0 0.00 0.00 0.00 75 1015.3
20260505092348 60 208 1.0 2.0 0.00 0.00 0.00 75 1015.0
20260505091845 60 181 1.0 2.0 0.00 0.00 0.00 75 1015.2
20260505091343 60 154 0.0 4.0 0.00 0.00 0.00 75 1015.0
20260505090841 60 155 0.0 0.0 0.00 0.00 0.00 75 1015.2
20260505090339 60 151 0.0 2.0 0.00 0.00 0.00 74 1015.2
20260505085836 60 126 0.0 1.0 0.00 0.00 0.00 74 1015.1
20260505085334 60 136 0.0 3.0 0.00 0.00 0.00 74 1015.1
20260505084831 60 166 0.0 2.0 0.00 0.00 0.00 73 1015.2
20260505084330 61 117 0.0 3.0 0.00 0.00 0.00 73 1015.1
20260505083826 61 168 0.0 2.0 0.00 0.00 0.00 72 1015.1
20260505083324 60 162 0.0 1.0 0.00 0.00 0.00 73 1015.0
20260505082820 60 121 0.0 6.0 0.00 0.00 0.00 73 1015.1
20260505082317 60 152 0.0 1.0 0.00 0.00 0.00 73 1015.1
20260505081813 60 153 0.0 1.0 0.00 0.00 0.00 73 1015.1
20260505081310 60 113 0.0 0.0 0.00 0.00 0.00 73 1015.2
20260505080807 60 141 0.0 1.0 0.00 0.00 0.00 72 1015.2
20260505080303 61 141 0.0 0.0 0.00 0.00 0.00 72 1015.0
20260505075758 61 193 1.0 1.0 0.00 0.00 0.00 72 1015.2
20260505075256 61 116 1.0 2.0 0.00 0.00 0.00 71 1015.1
20260505074753 61 195 0.0 1.0 0.00 0.00 0.00 71 1015.0
20260505074250 61 151 0.0 1.0 0.00 0.00 0.00 71 1015.1
20260505073747 61 162 0.0 1.0 0.00 0.00 0.00 71 1015.2
20260505073245 61 149 0.0 0.0 0.00 0.00 0.00 71 1014.9
20260505072742 61 174 0.0 1.0 0.00 0.00 0.00 70 1014.8
20260505072238 61 151 1.0 1.0 0.00 0.00 0.00 70 1014.7
20260505071733 61 145 0.0 2.0 0.00 0.00 0.00 70 1014.9
20260505071231 61 137 1.0 2.0 0.00 0.00 0.00 70 1014.8
20260505070728 61 141 0.0 0.0 0.00 0.00 0.00 70 1014.7
20260505070224 61 166 0.0 0.0 0.00 0.00 0.00 69 1014.5
20260505065720 61 162 1.0 1.0 0.00 0.00 0.00 69 1014.8
20260505065217 62 99 0.0 0.0 0.00 0.00 0.00 68 1015.0
20260505064714 62 141 0.0 1.0 0.00 0.00 0.00 67 1014.8
20260505064212 62 151 0.0 2.0 0.00 0.00 0.00 67 1014.6
20260505063709 62 173 0.0 2.0 0.00 0.00 0.00 66 1014.6
20260505063205 62 152 0.0 2.0 0.00 0.00 0.00 66 1014.5
20260505062701 62 154 0.0 1.0 0.00 0.00 0.00 65 1014.5
20260505062200 63 135 0.0 3.0 0.00 0.00 0.00 64 1014.5
20260505061656 63 132 2.0 6.0 0.00 0.00 0.00 64 1014.4
20260505061154 63 200 1.0 3.0 0.00 0.00 0.00 64 1014.3
20260505060651 63 141 0.0 2.0 0.00 0.00 0.00 64 1014.5
20260505060148 63 186 2.0 6.0 0.00 0.00 0.00 64 1014.6
20260505055643 63 155 0.0 1.0 0.00 0.00 0.00 63 1014.6
20260505055140 63 151 2.0 4.0 0.00 0.00 0.00 63 1014.5
20260505054638 63 145 0.0 2.0 0.00 0.00 0.00 63 1014.6
20260505054136 63 115 1.0 6.0 0.00 0.00 0.00 62 1014.6
20260505053633 63 151 1.0 3.0 0.00 0.00 0.00 62 1014.6
20260505053129 63 177 0.0 2.0 0.00 0.00 0.00 61 1014.6
20260505052626 64 183 0.0 3.0 0.00 0.00 0.00 61 1014.5
20260505052124 64 132 1.0 3.0 0.00 0.00 0.00 61 1014.6
20260505051621 64 123 1.0 4.0 0.00 0.00 0.00 59 1014.7
20260505051119 64 118 1.0 7.0 0.00 0.00 0.00 59 1014.6
20260505050616 64 160 2.0 6.0 0.00 0.00 0.00 58 1014.7
20260505050114 64 174 1.0 2.0 0.00 0.00 0.00 58 1014.5
20260505041544 65 136 1.0 6.0 0.00 0.00 0.00 54 1014.3
20260505041041 65 171 0.0 1.0 0.00 0.00 0.00 54 1014.2
20260505040538 65 141 1.0 2.0 0.00 0.00 0.00 53 1014.0
20260505040036 65 193 2.0 3.0 0.00 0.00 0.00 54 1014.2
20260505035531 65 132 0.0 1.0 0.00 0.00 0.00 54 1014.2
20260505035028 65 149 0.0 2.0 0.00 0.00 0.00 55 1014.2
20260505034525 65 137 0.0 1.0 0.00 0.00 0.00 54 1014.3
20260505034022 65 178 0.0 0.0 0.00 0.00 0.00 54 1014.2
20260505033519 65 151 0.0 0.0 0.00 0.00 0.00 54 1014.3
20260505033017 65 170 1.0 1.0 0.00 0.00 0.00 53 1014.1